This is the latest recevied weather packets stored in our database for station/object SV2LPQ-2. If no packets are shown the sender has not sent any weather packets the latest 1 day(s).
| Time | Temp. | Humidity | Pressure | Rain* | Wind** | Luminosity | Snow |
|---|---|---|---|---|---|---|---|
| 1777999074 | 21.67° C | 44% | 1042.5 hPa | 0 mm | 3.13 m/s, 156° | - | - |
| 1777998574 | 21.67° C | 44% | 1042.5 hPa | 0 mm | 3.58 m/s, 169° | - | - |
| 1777998074 | 22.22° C | 44% | 1042.5 hPa | 0 mm | 3.58 m/s, 135° | - | - |
| 1777997574 | 22.78° C | 44% | 1042.5 hPa | 0 mm | 4.02 m/s, 152° | - | - |
| 1777997074 | 22.78° C | 43% | 1042.5 hPa | 0 mm | 3.58 m/s, 142° | - | - |
| 1777996574 | 23.33° C | 42% | 1042.5 hPa | 0 mm | 3.58 m/s, 125° | - | - |
| 1777996074 | 23.89° C | 42% | 1042.5 hPa | 0 mm | 2.68 m/s, 135° | - | - |
| 1777995574 | 24.44° C | 42% | 1042.5 hPa | 0 mm | 3.58 m/s, 149° | - | - |
| 1777995074 | 25° C | 42% | 1042.5 hPa | 0 mm | 2.68 m/s, 142° | - | - |
| 1777994574 | 25° C | 42% | 1042.5 hPa | 0 mm | 2.68 m/s, 152° | - | - |
| 1777994074 | 25.56° C | 41% | 1042.5 hPa | 0 mm | 2.68 m/s, 132° | - | - |
| 1777993574 | 25° C | 40% | 1042.5 hPa | 0 mm | 2.68 m/s, 127° | - | - |
| 1777993074 | 25.56° C | 39% | 1042.5 hPa | 0 mm | 2.68 m/s, 156° | - | - |
| 1777992574 | 26.67° C | 37% | 1042.5 hPa | 0 mm | 2.24 m/s, 127° | - | - |
| 1777992074 | 28.33° C | 35% | 1042.5 hPa | 0 mm | 2.24 m/s, 148° | - | - |
| 1777991574 | 30° C | 27% | 1042.5 hPa | 0 mm | 0.45 m/s, 118° | - | - |
| 1777991074 | 29.44° C | 27% | 1042.5 hPa | 0 mm | 0 m/s | - | - |
| 1777990574 | 29.44° C | 28% | 1042.5 hPa | 0 mm | 0 m/s | - | - |
| 1777990074 | 29.44° C | 28% | 1042.5 hPa | 0 mm | 0 m/s | - | - |
| 1777989574 | 29.44° C | 28% | 1042.5 hPa | 0 mm | 0.45 m/s, 308° | - | - |
| 1777989074 | 29.44° C | 28% | 1042.5 hPa | 0 mm | 0.89 m/s, 303° | - | - |
| 1777988574 | 30° C | 28% | 1042.5 hPa | 0 mm | 0.89 m/s, 302° | - | - |
| 1777988074 | 29.44° C | 28% | 1042.5 hPa | 0 mm | 0 m/s | - | - |
| 1777987574 | 29.44° C | 28% | 1042.5 hPa | 0 mm | 0 m/s | - | - |
| 1777987074 | 29.44° C | 28% | 1042.5 hPa | 0 mm | 0.45 m/s, 296° | - | - |
* Rain latest hour (hover to see other rain measurements)
** Current wind speed in m/s (hover to see current wind gust speed)